User: anonymous   Login
Location: Unspecified
(0.0000°N, 0.0000°E)
Time: 06:14:12
(UTC+00:00)
Language:

LO-87 - Orbit

View from above orbital plane
View from above orbital plane
View from above satellite
View from above satellite

Ground track
Ground track

The orbit data is extracted from the following two-line orbital elements,

1 41557U 16033B   18199.80210606  .00001132  00000-0  44429-4 0  9990
2 41557  97.4367 283.9577 0015343  51.0981 309.1624 15.27745347118988
Epoch (UTC): 18 July 2018 19:15:01
Eccentricity: 0.0015343
inclination: 97.4367°
perigee height: 472 km
apogee height: 493 km
right ascension of ascending node: 283.9577°
argument of perigee: 51.0981°
revolutions per day: 15.27745347
mean anomaly at epoch: 309.1624°
orbit number at epoch: 11898

The dashed part of the orbit path shows where the satellite is in the earth's shadow,  

DLR